| time (UTC) | temp F | wind direction | speed MPH | gust MPH | rain 1hr in | rain 24hr in | rain mn in | humidity % | barometer mb |
| 20260508073538 | 52 | 238 | 2.0 | 5.0 | 0.00 | 0.00 | 0.00 | 80 | 1010.7 |
| 20260508073038 | 52 | 253 | 3.0 | 5.0 | 0.00 | 0.00 | 0.00 | 80 | 1011.0 |
| 20260508072537 | 52 | 260 | 2.0 | 5.0 | 0.00 | 0.00 | 0.00 | 80 | 1010.9 |
| 20260508072037 | 52 | 271 | 2.0 | 5.0 | 0.00 | 0.00 | 0.00 | 79 | 1010.8 |
| 20260508071537 | 53 | 263 | 3.0 | 7.0 | 0.00 | 0.00 | 0.00 | 79 | 1010.8 |
| 20260508071037 | 53 | 271 | 3.0 | 7.0 | 0.00 | 0.00 | 0.00 | 79 | 1010.7 |
| 20260508070536 | 53 | 266 | 3.0 | 9.0 | 0.00 | 0.00 | 0.00 | 79 | 1010.8 |
| 20260508070036 | 53 | 244 | 4.0 | 10.0 | 0.00 | 0.00 | 0.00 | 79 | 1010.8 |
| 20260508065535 | 52 | 226 | 7.0 | 10.0 | 0.00 | 0.00 | 0.00 | 79 | 1010.8 |
| 20260508065034 | 52 | 204 | 6.0 | 11.0 | 0.00 | 0.00 | 0.00 | 79 | 1010.8 |
| 20260508064538 | 52 | 207 | 7.0 | 10.0 | 0.00 | 0.00 | 0.00 | 79 | 1010.8 |
| 20260508064035 | 52 | 213 | 6.0 | 10.0 | 0.00 | 0.00 | 0.00 | 79 | 1010.8 |
| 20260508063534 | 52 | 209 | 5.0 | 9.0 | 0.00 | 0.00 | 0.00 | 79 | 1010.7 |
| 20260508063105 | 52 | 218 | 4.0 | 7.0 | 0.00 | 0.00 | 0.00 | 79 | 1010.7 |
| 20260508062533 | 52 | 216 | 4.0 | 7.0 | 0.00 | 0.00 | 0.00 | 79 | 1010.8 |
| 20260508062036 | 52 | 208 | 5.0 | 8.0 | 0.00 | 0.00 | 0.00 | 78 | 1010.8 |
| 20260508061535 | 52 | 207 | 5.0 | 8.0 | 0.00 | 0.00 | 0.00 | 77 | 1010.8 |
| 20260508061033 | 52 | 213 | 5.0 | 9.0 | 0.00 | 0.00 | 0.00 | 77 | 1010.9 |
| 20260508060535 | 52 | 217 | 6.0 | 10.0 | 0.00 | 0.00 | 0.00 | 77 | 1010.9 |
| 20260508060031 | 52 | 231 | 5.0 | 10.0 | 0.00 | 0.00 | 0.00 | 77 | 1011.0 |
| 20260508055530 | 52 | 234 | 2.0 | 6.0 | 0.00 | 0.00 | 0.00 | 78 | 1011.0 |
| 20260508055030 | 51 | 225 | 3.0 | 8.0 | 0.00 | 0.00 | 0.00 | 78 | 1010.9 |
| 20260508054530 | 52 | 221 | 2.0 | 8.0 | 0.00 | 0.00 | 0.00 | 78 | 1010.9 |
| 20260508054029 | 51 | 217 | 4.0 | 8.0 | 0.00 | 0.00 | 0.00 | 78 | 1011.0 |
| 20260508053528 | 51 | 213 | 5.0 | 7.0 | 0.00 | 0.00 | 0.00 | 78 | 1010.8 |
| 20260508053042 | 51 | 206 | 5.0 | 7.0 | 0.00 | 0.00 | 0.00 | 79 | 1010.9 |
| 20260508052527 | 50 | 194 | 5.0 | 7.0 | 0.00 | 0.00 | 0.00 | 80 | 1010.8 |
| 20260508052029 | 50 | 199 | 5.0 | 7.0 | 0.00 | 0.00 | 0.00 | 80 | 1010.8 |
| 20260508051524 | 50 | 194 | 5.0 | 8.0 | 0.00 | 0.00 | 0.00 | 79 | 1010.9 |
| 20260508051024 | 50 | 191 | 4.0 | 8.0 | 0.00 | 0.00 | 0.00 | 78 | 1010.8 |
| 20260508050523 | 50 | 190 | 5.0 | 7.0 | 0.00 | 0.00 | 0.00 | 78 | 1010.8 |
| 20260508050021 | 51 | 192 | 5.0 | 7.0 | 0.00 | 0.00 | 0.00 | 78 | 1010.7 |
| 20260508045521 | 51 | 190 | 6.0 | 7.0 | 0.00 | 0.00 | 0.00 | 78 | 1010.8 |
| 20260508045025 | 50 | 193 | 5.0 | 9.0 | 0.00 | 0.00 | 0.00 | 79 | 1010.8 |
| 20260508044522 | 50 | 191 | 6.0 | 9.0 | 0.00 | 0.00 | 0.00 | 79 | 1010.7 |
| 20260508044022 | 50 | 201 | 5.0 | 7.0 | 0.00 | 0.00 | 0.00 | 79 | 1010.7 |
| 20260508043521 | 50 | 190 | 5.0 | 7.0 | 0.00 | 0.00 | 0.00 | 79 | 1010.7 |
| 20260508043020 | 50 | 192 | 5.0 | 7.0 | 0.00 | 0.00 | 0.00 | 79 | 1010.7 |
| 20260508042520 | 50 | 196 | 5.0 | 7.0 | 0.00 | 0.00 | 0.00 | 78 | 1010.6 |
| 20260508042024 | 50 | 188 | 5.0 | 8.0 | 0.00 | 0.00 | 0.00 | 78 | 1010.6 |
| 20260508041521 | 50 | 186 | 5.0 | 7.0 | 0.00 | 0.00 | 0.00 | 78 | 1010.7 |
| 20260508041020 | 50 | 195 | 5.0 | 7.0 | 0.00 | 0.00 | 0.00 | 77 | 1010.7 |
| 20260508040521 | 50 | 192 | 5.0 | 7.0 | 0.00 | 0.00 | 0.00 | 77 | 1010.7 |
| 20260508040020 | 50 | 192 | 4.0 | 6.0 | 0.00 | 0.00 | 0.00 | 76 | 1010.7 |
| 20260508035519 | 51 | 205 | 5.0 | 7.0 | 0.00 | 0.00 | 0.00 | 77 | 1010.7 |
| 20260508035021 | 51 | 187 | 4.0 | 7.0 | 0.00 | 0.00 | 0.00 | 76 | 1010.7 |
| 20260508034525 | 51 | 195 | 4.0 | 7.0 | 0.00 | 0.00 | 0.00 | 76 | 1010.7 |
| 20260508034020 | 51 | 193 | 4.0 | 7.0 | 0.00 | 0.00 | 0.00 | 76 | 1010.7 |
| 20260508033519 | 51 | 194 | 5.0 | 8.0 | 0.00 | 0.00 | 0.00 | 76 | 1010.7 |
| 20260508033025 | 51 | 194 | 5.0 | 8.0 | 0.00 | 0.00 | 0.00 | 76 | 1010.6 |
| 20260508032519 | 51 | 202 | 6.0 | 8.0 | 0.00 | 0.00 | 0.00 | 77 | 1010.6 |
| 20260508032019 | 51 | 185 | 6.0 | 9.0 | 0.00 | 0.00 | 0.00 | 77 | 1010.6 |
| 20260508031521 | 51 | 195 | 6.0 | 9.0 | 0.00 | 0.00 | 0.00 | 76 | 1010.7 |
| 20260508031018 | 51 | 211 | 6.0 | 9.0 | 0.00 | 0.00 | 0.00 | 76 | 1010.7 |
| 20260508030518 | 51 | 197 | 5.0 | 7.0 | 0.00 | 0.00 | 0.00 | 76 | 1010.7 |
| 20260508030019 | 51 | 196 | 4.0 | 7.0 | 0.00 | 0.00 | 0.00 | 75 | 1010.7 |
| 20260508025517 | 52 | 192 | 5.0 | 7.0 | 0.00 | 0.00 | 0.00 | 75 | 1010.7 |
| 20260508025017 | 52 | 199 | 5.0 | 11.0 | 0.00 | 0.00 | 0.00 | 74 | 1010.8 |
| 20260508024522 | 53 | 196 | 6.0 | 11.0 | 0.00 | 0.00 | 0.00 | 73 | 1010.7 |
| 20260508024017 | 52 | 202 | 7.0 | 10.0 | 0.00 | 0.00 | 0.00 | 73 | 1010.6 |
| 20260508023517 | 52 | 198 | 5.0 | 8.0 | 0.00 | 0.00 | 0.00 | 73 | 1010.6 |
| 20260508023017 | 53 | 194 | 6.0 | 8.0 | 0.00 | 0.00 | 0.00 | 71 | 1010.5 |
| 20260508022516 | 53 | 202 | 5.0 | 9.0 | 0.00 | 0.00 | 0.00 | 71 | 1010.5 |
| 20260508022016 | 53 | 203 | 6.0 | 10.0 | 0.00 | 0.00 | 0.00 | 70 | 1010.5 |
| 20260508021526 | 53 | 217 | 6.0 | 10.0 | 0.00 | 0.00 | 0.00 | 69 | 1010.5 |
| 20260508021018 | 54 | 217 | 5.0 | 9.0 | 0.00 | 0.00 | 0.00 | 68 | 1010.4 |
| 20260508020515 | 54 | 212 | 5.0 | 8.0 | 0.00 | 0.00 | 0.00 | 68 | 1010.3 |
| 20260508020015 | 54 | 217 | 6.0 | 8.0 | 0.00 | 0.00 | 0.00 | 67 | 1010.3 |
| 20260508015515 | 54 | 209 | 6.0 | 9.0 | 0.00 | 0.00 | 0.00 | 67 | 1010.2 |
| 20260508015015 | 55 | 223 | 6.0 | 10.0 | 0.00 | 0.00 | 0.00 | 65 | 1010.2 |
| 20260508014516 | 55 | 220 | 6.0 | 14.0 | 0.00 | 0.00 | 0.00 | 64 | 1010.1 |
| 20260508014016 | 56 | 221 | 8.0 | 14.0 | 0.00 | 0.00 | 0.00 | 63 | 1010.0 |
| 20260508013515 | 56 | 196 | 9.0 | 13.0 | 0.00 | 0.00 | 0.00 | 63 | 1009.9 |
| 20260508013014 | 56 | 198 | 8.0 | 12.0 | 0.00 | 0.00 | 0.00 | 64 | 1009.9 |
| 20260508012514 | 57 | 216 | 7.0 | 13.0 | 0.00 | 0.00 | 0.00 | 63 | 1009.9 |
| 20260508012014 | 57 | 212 | 8.0 | 14.0 | 0.00 | 0.00 | 0.00 | 62 | 1009.8 |
| 20260508011515 | 57 | 213 | 8.0 | 18.0 | 0.00 | 0.00 | 0.00 | 61 | 1009.8 |
| 20260508011014 | 58 | 253 | 11.0 | 18.0 | 0.00 | 0.00 | 0.00 | 61 | 1009.7 |
| 20260508010514 | 58 | 204 | 9.0 | 16.0 | 0.00 | 0.00 | 0.00 | 61 | 1009.7 |
| 20260508010031 | 58 | 205 | 11.0 | 16.0 | 0.00 | 0.00 | 0.00 | 60 | 1009.6 |
| 20260508005514 | 58 | 213 | 9.0 | 13.0 | 0.00 | 0.00 | 0.00 | 60 | 1009.5 |
| 20260508005014 | 59 | 223 | 9.0 | 15.0 | 0.00 | 0.00 | 0.00 | 59 | 1009.4 |
| 20260508004513 | 59 | 227 | 10.0 | 15.0 | 0.00 | 0.00 | 0.00 | 59 | 1009.5 |
| 20260508004016 | 59 | 213 | 10.0 | 15.0 | 0.00 | 0.00 | 0.00 | 58 | 1009.4 |
| 20260508003514 | 59 | 213 | 8.0 | 15.0 | 0.00 | 0.00 | 0.00 | 58 | 1009.5 |
| 20260508003013 | 60 | 219 | 8.0 | 13.0 | 0.00 | 0.00 | 0.00 | 58 | 1009.4 |
| 20260508002516 | 60 | 209 | 8.0 | 14.0 | 0.00 | 0.00 | 0.00 | 57 | 1009.6 |
| 20260508002014 | 60 | 214 | 8.0 | 14.0 | 0.00 | 0.00 | 0.00 | 57 | 1009.5 |
| 20260508001514 | 60 | 200 | 6.0 | 11.0 | 0.00 | 0.00 | 0.00 | 57 | 1009.5 |
| 20260508001012 | 60 | 228 | 7.0 | 15.0 | 0.00 | 0.00 | 0.00 | 56 | 1009.6 |
| 20260508000513 | 60 | 225 | 9.0 | 15.0 | 0.00 | 0.00 | 0.00 | 55 | 1009.4 |
| 20260508000011 | 61 | 220 | 9.0 | 15.0 | 0.00 | 0.00 | 0.00 | 54 | 1009.4 |
| 20260507235516 | 62 | 210 | 10.0 | 15.0 | 0.00 | 0.00 | 0.00 | 50 | 1009.4 |
| 20260507235013 | 62 | 215 | 9.0 | 15.0 | 0.00 | 0.00 | 0.00 | 48 | 1009.4 |
| 20260507234511 | 62 | 254 | 10.0 | 16.0 | 0.00 | 0.00 | 0.00 | 48 | 1009.3 |
| 20260507234013 | 62 | 244 | 10.0 | 20.0 | 0.00 | 0.00 | 0.00 | 47 | 1009.4 |
| 20260507233511 | 62 | 259 | 11.0 | 20.0 | 0.00 | 0.00 | 0.00 | 46 | 1009.3 |
| 20260507233010 | 62 | 258 | 9.0 | 16.0 | 0.00 | 0.00 | 0.00 | 51 | 1009.3 |
| 20260507232510 | 62 | 206 | 9.0 | 16.0 | 0.00 | 0.00 | 0.00 | 49 | 1009.4 |
| 20260507232013 | 62 | 259 | 10.0 | 18.0 | 0.00 | 0.00 | 0.00 | 47 | 1009.3 |
| 20260507231509 | 62 | 255 | 11.0 | 18.0 | 0.00 | 0.00 | 0.00 | 48 | 1009.5 |
| 20260507231009 | 62 | 219 | 12.0 | 17.0 | 0.00 | 0.00 | 0.00 | 48 | 1009.4 |
| 20260507230509 | 63 | 246 | 11.0 | 17.0 | 0.00 | 0.00 | 0.00 | 48 | 1009.4 |
| 20260507230019 | 62 | 221 | 12.0 | 17.0 | 0.00 | 0.00 | 0.00 | 47 | 1009.5 |
| 20260507225508 | 62 | 260 | 9.0 | 15.0 | 0.00 | 0.00 | 0.00 | 47 | 1009.6 |
| 20260507225008 | 62 | 252 | 10.0 | 15.0 | 0.00 | 0.00 | 0.00 | 48 | 1009.6 |
| 20260507224509 | 63 | 224 | 9.0 | 20.0 | 0.00 | 0.00 | 0.00 | 48 | 1009.7 |
| 20260507224006 | 62 | 233 | 9.0 | 20.0 | 0.00 | 0.00 | 0.00 | 50 | 1009.7 |
| 20260507223506 | 62 | 227 | 10.0 | 21.0 | 0.00 | 0.00 | 0.00 | 48 | 1009.8 |
| 20260507223005 | 62 | 225 | 13.0 | 21.0 | 0.00 | 0.00 | 0.00 | 47 | 1009.9 |
| 20260507222505 | 62 | 223 | 7.0 | 19.0 | 0.00 | 0.00 | 0.00 | 50 | 1010.0 |
| 20260507222004 | 63 | 242 | 11.0 | 22.0 | 0.00 | 0.00 | 0.00 | 48 | 1010.0 |
| 20260507221503 | 63 | 234 | 13.0 | 22.0 | 0.00 | 0.00 | 0.00 | 47 | 1010.1 |
| 20260507221001 | 63 | 229 | 11.0 | 22.0 | 0.00 | 0.00 | 0.00 | 49 | 1010.1 |
| 20260507220501 | 62 | 238 | 12.0 | 20.0 | 0.00 | 0.00 | 0.00 | 48 | 1010.1 |
| 20260507220100 | 62 | 247 | 11.0 | 19.0 | 0.00 | 0.00 | 0.00 | 52 | 1010.1 |
| 20260507215600 | 61 | 205 | 7.0 | 19.0 | 0.00 | 0.00 | 0.00 | 54 | 1010.2 |
| 20260507215100 | 61 | 215 | 8.0 | 17.0 | 0.00 | 0.00 | 0.00 | 54 | 1010.2 |
| 20260507214600 | 61 | 200 | 12.0 | 17.0 | 0.00 | 0.00 | 0.00 | 54 | 1010.4 |
| 20260507214058 | 60 | 190 | 9.0 | 16.0 | 0.00 | 0.00 | 0.00 | 55 | 1010.3 |
| 20260507213558 | 60 | 233 | 7.0 | 13.0 | 0.00 | 0.00 | 0.00 | 55 | 1010.4 |
| 20260507213134 | 60 | 225 | 7.0 | 13.0 | 0.00 | 0.00 | 0.00 | 55 | 1010.5 |
| 20260507212601 | 60 | 192 | 8.0 | 15.0 | 0.00 | 0.00 | 0.00 | 55 | 1010.4 |
| 20260507212057 | 60 | 229 | 10.0 | 15.0 | 0.00 | 0.00 | 0.00 | 56 | 1010.5 |
| 20260507211558 | 61 | 202 | 7.0 | 15.0 | 0.00 | 0.00 | 0.00 | 53 | 1010.3 |
| 20260507211055 | 62 | 229 | 9.0 | 15.0 | 0.00 | 0.00 | 0.00 | 55 | 1010.6 |
| 20260507210558 | 61 | 234 | 7.0 | 12.0 | 0.00 | 0.00 | 0.00 | 55 | 1010.6 |
| 20260507205555 | 60 | 207 | 9.0 | 16.0 | 0.00 | 0.00 | 0.00 | 56 | 1010.7 |
| 20260507205055 | 60 | 192 | 6.0 | 16.0 | 0.00 | 0.00 | 0.00 | 54 | 1010.9 |
| 20260507204552 | 59 | 174 | 7.0 | 11.0 | 0.00 | 0.00 | 0.00 | 56 | 1010.9 |
| 20260507204051 | 58 | 234 | 2.0 | 9.0 | 0.00 | 0.00 | 0.00 | 57 | 1011.0 |
| 20260507203551 | 59 | 196 | 4.0 | 8.0 | 0.00 | 0.00 | 0.00 | 55 | 1011.1 |
| 20260507203051 | 59 | 240 | 5.0 | 9.0 | 0.00 | 0.00 | 0.00 | 57 | 1011.1 |
| 20260507202550 | 59 | 168 | 3.0 | 9.0 | 0.00 | 0.00 | 0.00 | 53 | 1011.2 |
| 20260507202052 | 59 | 196 | 2.0 | 8.0 | 0.00 | 0.00 | 0.00 | 63 | 1011.3 |
| 20260507201603 | 58 | 199 | 4.0 | 8.0 | 0.00 | 0.00 | 0.00 | 56 | 1011.4 |
| 20260507201047 | 58 | 239 | 4.0 | 10.0 | 0.00 | 0.00 | 0.00 | 59 | 1011.6 |
| 20260507200546 | 58 | 249 | 5.0 | 10.0 | 0.00 | 0.00 | 0.00 | 57 | 1011.7 |
| 20260507200055 | 58 | 320 | 2.0 | 6.0 | 0.00 | 0.00 | 0.00 | 59 | 1011.8 |
| 20260507195544 | 57 | 324 | 3.0 | 11.0 | 0.00 | 0.00 | 0.00 | 58 | 1012.1 |
| 20260507195044 | 57 | 269 | 3.0 | 11.0 | 0.00 | 0.00 | 0.00 | 57 | 1012.6 |
| 20260507194544 | 57 | 243 | 6.0 | 11.0 | 0.00 | 0.00 | 0.00 | 57 | 1012.6 |
| 20260507194047 | 56 | 279 | 7.0 | 12.0 | 0.00 | 0.00 | 0.00 | 59 | 1012.5 |
| 20260507193543 | 56 | 311 | 6.0 | 12.0 | 0.00 | 0.00 | 0.00 | 60 | 1012.6 |
| 20260507193047 | 56 | 306 | 5.0 | 8.0 | 0.00 | 0.00 | 0.00 | 57 | 1012.5 |
| 20260507192545 | 56 | 292 | 4.0 | 14.0 | 0.00 | 0.00 | 0.00 | 54 | 1012.6 |
| 20260507192042 | 56 | 273 | 7.0 | 14.0 | 0.00 | 0.00 | 0.00 | 56 | 1012.8 |
| 20260507191542 | 56 | 303 | 5.0 | 12.0 | 0.00 | 0.00 | 0.00 | 59 | 1012.7 |
| 20260507191044 | 56 | 307 | 6.0 | 12.0 | 0.00 | 0.00 | 0.00 | 57 | 1012.7 |
| 20260507190542 | 56 | 299 | 7.0 | 12.0 | 0.00 | 0.00 | 0.00 | 58 | 1012.7 |
| 20260507190044 | 56 | 315 | 7.0 | 12.0 | 0.00 | 0.00 | 0.00 | 57 | 1012.5 |
| 20260507185541 | 57 | 304 | 5.0 | 11.0 | 0.00 | 0.00 | 0.00 | 55 | 1012.4 |
| 20260507185041 | 57 | 294 | 4.0 | 8.0 | 0.00 | 0.00 | 0.00 | 55 | 1012.4 |
| 20260507184541 | 57 | 304 | 5.0 | 8.0 | 0.00 | 0.00 | 0.00 | 59 | 1012.4 |
| 20260507184041 | 56 | 323 | 5.0 | 11.0 | 0.00 | 0.00 | 0.00 | 53 | 1012.5 |
| 20260507183540 | 57 | 290 | 5.0 | 11.0 | 0.00 | 0.00 | 0.00 | 54 | 1012.5 |
| 20260507183040 | 56 | 304 | 6.0 | 13.0 | 0.00 | 0.00 | 0.00 | 55 | 1012.8 |
| 20260507182538 | 55 | 285 | 6.0 | 13.0 | 0.00 | 0.00 | 0.00 | 56 | 1013.0 |
| 20260507182039 | 55 | 302 | 9.0 | 14.0 | 0.00 | 0.00 | 0.00 | 56 | 1012.9 |
| 20260507181537 | 55 | 276 | 7.0 | 23.0 | 0.00 | 0.00 | 0.00 | 55 | 1012.9 |
| 20260507181037 | 54 | 279 | 11.0 | 23.0 | 0.00 | 0.00 | 0.00 | 53 | 1013.1 |
| 20260507180538 | 55 | 276 | 14.0 | 21.0 | 0.00 | 0.00 | 0.00 | 52 | 1013.2 |
| 20260507180037 | 56 | 255 | 11.0 | 21.0 | 0.00 | 0.00 | 0.00 | 50 | 1013.2 |
| 20260507175537 | 57 | 234 | 14.0 | 21.0 | 0.00 | 0.00 | 0.00 | 47 | 1013.1 |
| 20260507175037 | 57 | 242 | 10.0 | 20.0 | 0.00 | 0.00 | 0.00 | 48 | 1013.0 |
| 20260507174548 | 57 | 253 | 13.0 | 18.0 | 0.00 | 0.00 | 0.00 | 46 | 1012.9 |
| 20260507174036 | 58 | 247 | 7.0 | 16.0 | 0.00 | 0.00 | 0.00 | 44 | 1012.9 |
| 20260507173536 | 58 | 257 | 8.0 | 15.0 | 0.00 | 0.00 | 0.00 | 43 | 1012.9 |
| 20260507173038 | 58 | 266 | 8.0 | 15.0 | 0.00 | 0.00 | 0.00 | 43 | 1012.9 |
| 20260507172541 | 58 | 267 | 7.0 | 19.0 | 0.00 | 0.00 | 0.00 | 40 | 1012.9 |
| 20260507172036 | 58 | 257 | 7.0 | 21.0 | 0.00 | 0.00 | 0.00 | 43 | 1013.0 |
| 20260507171535 | 60 | 236 | 14.0 | 21.0 | 0.00 | 0.00 | 0.00 | 41 | 1013.0 |
| 20260507171035 | 60 | 219 | 11.0 | 16.0 | 0.00 | 0.00 | 0.00 | 40 | 1012.9 |
| 20260507170536 | 60 | 227 | 9.0 | 18.0 | 0.00 | 0.00 | 0.00 | 40 | 1012.9 |
| 20260507170037 | 61 | 217 | 10.0 | 18.0 | 0.00 | 0.00 | 0.00 | 40 | 1013.0 |
| 20260507165533 | 61 | 206 | 11.0 | 16.0 | 0.00 | 0.00 | 0.00 | 38 | 1013.0 |
| 20260507165031 | 60 | 227 | 12.0 | 17.0 | 0.00 | 0.00 | 0.00 | 42 | 1013.0 |
| 20260507164531 | 59 | 235 | 9.0 | 17.0 | 0.00 | 0.00 | 0.00 | 45 | 1013.2 |
| 20260507164031 | 59 | 219 | 9.0 | 17.0 | 0.00 | 0.00 | 0.00 | 40 | 1013.3 |
| 20260507163532 | 59 | 197 | 10.0 | 17.0 | 0.00 | 0.00 | 0.00 | 44 | 1013.3 |
| 20260507163030 | 59 | 201 | 10.0 | 17.0 | 0.00 | 0.00 | 0.00 | 42 | 1013.4 |
| 20260507162528 | 60 | 247 | 9.0 | 19.0 | 0.00 | 0.00 | 0.00 | 43 | 1013.5 |
| 20260507162030 | 59 | 234 | 9.0 | 15.0 | 0.00 | 0.00 | 0.00 | 41 | 1013.5 |
| 20260507161530 | 59 | 222 | 7.0 | 19.0 | 0.00 | 0.00 | 0.00 | 41 | 1013.6 |
| 20260507161024 | 59 | 196 | 11.0 | 19.0 | 0.00 | 0.00 | 0.00 | 45 | 1013.7 |
| 20260507160524 | 59 | 219 | 9.0 | 14.0 | 0.00 | 0.00 | 0.00 | 45 | 1013.9 |
| 20260507160023 | 58 | 215 | 8.0 | 16.0 | 0.00 | 0.00 | 0.00 | 43 | 1013.9 |
| 20260507155523 | 58 | 229 | 11.0 | 16.0 | 0.00 | 0.00 | 0.00 | 47 | 1014.0 |
| 20260507155021 | 58 | 228 | 8.0 | 17.0 | 0.00 | 0.00 | 0.00 | 47 | 1014.0 |
| 20260507154522 | 57 | 222 | 11.0 | 17.0 | 0.00 | 0.00 | 0.00 | 44 | 1014.1 |
| 20260507154018 | 57 | 192 | 8.0 | 17.0 | 0.00 | 0.00 | 0.00 | 49 | 1014.1 |
| 20260507153518 | 57 | 202 | 9.0 | 17.0 | 0.00 | 0.00 | 0.00 | 47 | 1014.3 |
| 20260507153017 | 57 | 213 | 8.0 | 14.0 | 0.00 | 0.00 | 0.00 | 47 | 1014.4 |
| 20260507152516 | 57 | 217 | 6.0 | 14.0 | 0.00 | 0.00 | 0.00 | 47 | 1014.4 |
| 20260507152015 | 56 | 201 | 9.0 | 14.0 | 0.00 | 0.00 | 0.00 | 49 | 1014.3 |
| 20260507151514 | 56 | 211 | 8.0 | 14.0 | 0.00 | 0.00 | 0.00 | 49 | 1014.4 |
| 20260507151013 | 55 | 212 | 7.0 | 13.0 | 0.00 | 0.00 | 0.00 | 50 | 1014.4 |
| 20260507150515 | 55 | 205 | 7.0 | 13.0 | 0.00 | 0.00 | 0.00 | 49 | 1014.5 |
| 20260507150013 | 55 | 205 | 9.0 | 13.0 | 0.00 | 0.00 | 0.00 | 49 | 1014.6 |
| 20260507145512 | 55 | 215 | 8.0 | 12.0 | 0.00 | 0.00 | 0.00 | 49 | 1014.7 |
| 20260507145014 | 54 | 202 | 5.0 | 11.0 | 0.00 | 0.00 | 0.00 | 51 | 1014.7 |
| 20260507144509 | 54 | 216 | 8.0 | 11.0 | 0.00 | 0.00 | 0.00 | 48 | 1014.8 |
| 20260507144008 | 54 | 203 | 5.0 | 12.0 | 0.00 | 0.00 | 0.00 | 52 | 1014.7 |
| 20260507143505 | 53 | 226 | 6.0 | 12.0 | 0.00 | 0.00 | 0.00 | 52 | 1014.9 |
| 20260507143005 | 53 | 239 | 7.0 | 10.0 | 0.00 | 0.00 | 0.00 | 50 | 1015.0 |
| 20260507142504 | 53 | 227 | 4.0 | 10.0 | 0.00 | 0.00 | 0.00 | 52 | 1014.9 |
| 20260507142003 | 53 | 240 | 4.0 | 10.0 | 0.00 | 0.00 | 0.00 | 50 | 1014.9 |
| 20260507141502 | 52 | 202 | 5.0 | 9.0 | 0.00 | 0.00 | 0.00 | 51 | 1015.0 |
| 20260507141003 | 52 | 184 | 4.0 | 10.0 | 0.00 | 0.00 | 0.00 | 53 | 1015.1 |
| 20260507140601 | 51 | 175 | 5.0 | 10.0 | 0.00 | 0.00 | 0.00 | 58 | 1015.1 |
| 20260507140059 | 51 | 202 | 3.0 | 6.0 | 0.00 | 0.00 | 0.00 | 55 | 1015.2 |
| 20260507135559 | 51 | 170 | 4.0 | 9.0 | 0.00 | 0.00 | 0.00 | 57 | 1015.2 |
| 20260507135059 | 50 | 186 | 4.0 | 9.0 | 0.00 | 0.00 | 0.00 | 57 | 1015.2 |
| 20260507134600 | 50 | 227 | 5.0 | 9.0 | 0.00 | 0.00 | 0.00 | 58 | 1015.3 |
| 20260507134054 | 50 | 214 | 5.0 | 9.0 | 0.00 | 0.00 | 0.00 | 58 | 1015.4 |
| 20260507133553 | 49 | 194 | 5.0 | 9.0 | 0.00 | 0.00 | 0.00 | 61 | 1015.4 |
| 20260507133053 | 49 | 234 | 5.0 | 8.0 | 0.00 | 0.00 | 0.00 | 60 | 1015.4 |
| 20260507132550 | 48 | 195 | 4.0 | 7.0 | 0.00 | 0.00 | 0.00 | 64 | 1015.4 |
| 20260507132049 | 48 | 228 | 3.0 | 7.0 | 0.00 | 0.00 | 0.00 | 65 | 1015.5 |
| 20260507131549 | 47 | 206 | 4.0 | 6.0 | 0.00 | 0.00 | 0.00 | 65 | 1015.4 |
| 20260507131047 | 47 | 218 | 4.0 | 6.0 | 0.00 | 0.00 | 0.00 | 66 | 1015.4 |
| 20260507130545 | 46 | 184 | 3.0 | 5.0 | 0.00 | 0.00 | 0.00 | 66 | 1015.3 |
| 20260507130058 | 46 | 186 | 3.0 | 5.0 | 0.00 | 0.00 | 0.00 | 71 | 1015.4 |
| 20260507125543 | 45 | 203 | 2.0 | 4.0 | 0.00 | 0.00 | 0.00 | 74 | 1015.3 |
| 20260507125042 | 45 | 200 | 2.0 | 4.0 | 0.00 | 0.00 | 0.00 | 75 | 1015.3 |
| 20260507124552 | 44 | 165 | 2.0 | 4.0 | 0.00 | 0.00 | 0.00 | 75 | 1015.0 |
| 20260507124040 | 44 | 165 | 1.0 | 3.0 | 0.00 | 0.00 | 0.00 | 77 | 1015.0 |
| 20260507123539 | 43 | 168 | 1.0 | 3.0 | 0.00 | 0.00 | 0.00 | 80 | 1015.1 |
| 20260507123041 | 43 | 165 | 0.0 | 3.0 | 0.00 | 0.00 | 0.00 | 79 | 1015.1 |
| 20260507122536 | 42 | 165 | 0.0 | 3.0 | 0.00 | 0.00 | 0.00 | 83 | 1015.0 |
| 20260507122035 | 41 | 165 | 2.0 | 3.0 | 0.00 | 0.00 | 0.00 | 80 | 1015.0 |
| 20260507121538 | 40 | 165 | 1.0 | 3.0 | 0.00 | 0.00 | 0.00 | 84 | 1015.0 |
| 20260507121035 | 40 | 165 | 1.0 | 5.0 | 0.00 | 0.00 | 0.00 | 86 | 1015.1 |
| 20260507120540 | 39 | 165 | 3.0 | 5.0 | 0.00 | 0.00 | 0.00 | 85 | 1015.1 |
| 20260507120038 | 39 | 165 | 3.0 | 4.0 | 0.00 | 0.00 | 0.00 | 87 | 1015.1 |
| 20260507115534 | 38 | 147 | 2.0 | 4.0 | 0.00 | 0.00 | 0.00 | 88 | 1015.1 |
| 20260507115035 | 37 | 147 | 2.0 | 4.0 | 0.00 | 0.00 | 0.00 | 89 | 1015.1 |
| 20260507114534 | 37 | 148 | 2.0 | 4.0 | 0.00 | 0.00 | 0.00 | 89 | 1015.2 |
| 20260507114033 | 36 | 148 | 2.0 | 3.0 | 0.00 | 0.00 | 0.00 | 89 | 1015.1 |
| 20260507113534 | 36 | 148 | 2.0 | 3.0 | 0.00 | 0.00 | 0.00 | 89 | 1015.1 |
| 20260507113033 | 35 | 112 | 2.0 | 3.0 | 0.00 | 0.00 | 0.00 | 90 | 1015.0 |
| 20260507112532 | 35 | 112 | 0.0 | 0.0 | 0.00 | 0.00 | 0.00 | 90 | 1015.1 |
| 20260507112032 | 34 | 112 | 0.0 | 0.0 | 0.00 | 0.00 | 0.00 | 91 | 1015.0 |
| 20260507111532 | 34 | 49 | 0.0 | 0.0 | 0.00 | 0.00 | 0.00 | 91 | 1015.0 |
| 20260507111031 | 34 | 49 | 0.0 | 0.0 | 0.00 | 0.00 | 0.00 | 90 | 1015.0 |
| 20260507110531 | 33 | 49 | 0.0 | 1.0 | 0.00 | 0.00 | 0.00 | 90 | 1015.0 |
| 20260507110031 | 33 | 123 | 0.0 | 1.0 | 0.00 | 0.00 | 0.00 | 90 | 1015.0 |
| 20260507105530 | 33 | 79 | 0.0 | 1.0 | 0.00 | 0.00 | 0.00 | 90 | 1015.0 |
| 20260507105031 | 33 | 134 | 0.0 | 0.0 | 0.00 | 0.00 | 0.00 | 90 | 1015.0 |
| 20260507104531 | 33 | 134 | 0.0 | 0.0 | 0.00 | 0.00 | 0.00 | 89 | 1015.0 |
| 20260507104030 | 33 | 134 | 0.0 | 1.0 | 0.00 | 0.00 | 0.00 | 88 | 1015.0 |
| 20260507103529 | 33 | 134 | 0.0 | 2.0 | 0.00 | 0.00 | 0.00 | 88 | 1015.0 |
| 20260507103029 | 34 | 134 | 1.0 | 2.0 | 0.00 | 0.00 | 0.00 | 89 | 1015.0 |
| 20260507102529 | 34 | 134 | 1.0 | 3.0 | 0.00 | 0.00 | 0.00 | 89 | 1014.9 |
| 20260507102030 | 34 | 134 | 1.0 | 3.0 | 0.00 | 0.00 | 0.00 | 89 | 1015.0 |
| 20260507101538 | 34 | 134 | 2.0 | 3.0 | 0.00 | 0.00 | 0.00 | 89 | 1015.1 |
| 20260507101030 | 34 | 134 | 0.0 | 2.0 | 0.00 | 0.00 | 0.00 | 89 | 1015.1 |
| 20260507100527 | 34 | 134 | 0.0 | 0.0 | 0.00 | 0.00 | 0.00 | 89 | 1015.1 |
| 20260507100039 | 34 | 134 | 0.0 | 2.0 | 0.00 | 0.00 | 0.00 | 88 | 1015.0 |
| 20260507095526 | 34 | 134 | 0.0 | 3.0 | 0.00 | 0.00 | 0.00 | 88 | 1015.0 |
| 20260507095026 | 34 | 134 | 2.0 | 3.0 | 0.00 | 0.00 | 0.00 | 87 | 1014.9 |
| 20260507094524 | 34 | 134 | 2.0 | 3.0 | 0.00 | 0.00 | 0.00 | 87 | 1014.9 |
| 20260507094023 | 35 | 134 | 1.0 | 3.0 | 0.00 | 0.00 | 0.00 | 87 | 1015.1 |
| 20260507093527 | 35 | 134 | 1.0 | 3.0 | 0.00 | 0.00 | 0.00 | 88 | 1015.1 |
| 20260507093023 | 35 | 134 | 1.0 | 3.0 | 0.00 | 0.00 | 0.00 | 88 | 1015.1 |
| 20260507092523 | 35 | 134 | 2.0 | 3.0 | 0.00 | 0.00 | 0.00 | 88 | 1015.2 |
| 20260507092021 | 35 | 134 | 1.0 | 3.0 | 0.00 | 0.00 | 0.00 | 88 | 1015.2 |
| 20260507091522 | 35 | 134 | 2.0 | 3.0 | 0.00 | 0.00 | 0.00 | 89 | 1015.2 |
| 20260507091022 | 35 | 134 | 1.0 | 2.0 | 0.00 | 0.00 | 0.00 | 89 | 1015.3 |
| 20260507090522 | 35 | 134 | 1.0 | 2.0 | 0.00 | 0.00 | 0.00 | 88 | 1015.3 |
| 20260507090021 | 35 | 134 | 1.0 | 2.0 | 0.00 | 0.00 | 0.00 | 88 | 1015.2 |
| 20260507085521 | 35 | 134 | 1.0 | 3.0 | 0.00 | 0.00 | 0.00 | 89 | 1015.3 |
| 20260507085021 | 35 | 134 | 1.0 | 3.0 | 0.00 | 0.00 | 0.00 | 88 | 1015.3 |
| 20260507084520 | 36 | 134 | 1.0 | 2.0 | 0.00 | 0.00 | 0.00 | 88 | 1015.2 |
| 20260507084020 | 36 | 134 | 0.0 | 0.0 | 0.00 | 0.00 | 0.00 | 88 | 1015.2 |
| 20260507083520 | 36 | 134 | 0.0 | 0.0 | 0.00 | 0.00 | 0.00 | 87 | 1015.1 |
| 20260507083019 | 36 | 134 | 0.0 | 0.0 | 0.00 | 0.00 | 0.00 | 87 | 1015.2 |
| 20260507082522 | 36 | 134 | 0.0 | 0.0 | 0.00 | 0.00 | 0.00 | 86 | 1015.1 |
| 20260507082018 | 36 | 134 | 0.0 | 1.0 | 0.00 | 0.00 | 0.00 | 85 | 1015.0 |
| 20260507081520 | 36 | 134 | 0.0 | 1.0 | 0.00 | 0.00 | 0.00 | 85 | 1015.0 |
| 20260507081018 | 36 | 134 | 0.0 | 1.0 | 0.00 | 0.00 | 0.00 | 84 | 1015.0 |
| 20260507080518 | 36 | 134 | 0.0 | 2.0 | 0.00 | 0.00 | 0.00 | 85 | 1015.0 |
| 20260507080018 | 36 | 134 | 1.0 | 2.0 | 0.00 | 0.00 | 0.00 | 85 | 1015.0 |
| 20260507075517 | 36 | 134 | 1.0 | 3.0 | 0.00 | 0.00 | 0.00 | 85 | 1015.0 |
| 20260507075017 | 36 | 134 | 2.0 | 3.0 | 0.00 | 0.00 | 0.00 | 85 | 1015.1 |
| 20260507074517 | 36 | 134 | 2.0 | 3.0 | 0.00 | 0.00 | 0.00 | 86 | 1015.1 |
| 20260507074016 | 36 | 134 | 2.0 | 3.0 | 0.00 | 0.00 | 0.00 | 86 | 1015.0 |